Location: Chino
(34.0122°N, 117.6889°W)
Time: 01:24:11
(UTC+00:00)

Daily predictions for brighter satellites

Satellite Brightness Start Highest point End
(mag) Time Altitude Azimuth Time Altitude Azimuth Time Altitude Azimuth
Nadezhda 3 Rocket 4.0 01:31:03 10° S 01:37:17 80° E 01:43:36 10° N
Cosmos 1354 Rocket 4.4 01:34:38 10° N 01:39:36 42° ENE 01:44:32 10° SE
Cosmos 968 Rocket 3.7 01:37:36 10° N 01:42:45 53° ENE 01:47:51 10° SSE
Cosmos 1758 Rocket 3.6 01:39:39 10° N 01:44:06 72° E 01:48:34 10° SSE
YAOGAN 6 3.4 01:43:25 10° SE 01:46:39 29° ENE 01:49:52 10° NNE
Shenzhou-11 Module 4.1 01:45:17 10° NW 01:47:06 16° N 01:48:55 10° NNE
Cosmos 1934 Rocket 4.5 01:41:51 10° N 01:47:45 40° E 01:53:39 10° SSE
Cosmos 292 Rocket 3.9 01:46:23 10° S 01:50:57 51° ESE 01:55:34 10° NNE
YAOGAN 1 3.1 01:54:11 10° SE 01:58:07 36° ENE 02:02:04 10° N
Cosmos 1939 Rocket 4.4 01:56:07 10° ESE 01:58:38 17° ENE 02:01:10 10° NNE
Cosmos 1908 3.9 01:55:48 10° SSE 01:59:19 33° E 02:02:52 10° NNE
Delta 2 Rocket 4.4 01:56:58 10° SSW 01:59:38 21° SSE 02:01:36 13° ESE
SKYMED 2 3.6 01:55:30 10° N 01:59:51 86° WNW 02:04:11 10° SSW
Cosmos 1503 Rocket 3.9 01:59:00 10° NNW 02:04:11 83° ENE 02:09:22 10° SSE
Lacrosse 5 rocket 1.9 02:00:41 10° NNW 02:04:14 35° NE 02:07:06 15° ESE
CSL-04 Debris 4.3 02:00:56 10° SSE 02:06:09 51° ENE 02:11:25 10° N
Atlas Centaur 2 4.3 02:02:09 10° W 02:07:09 22° SSW 02:11:24 10° SSE
COSMOS 2406 3.9 02:03:28 10° N 02:08:38 33° ENE 02:13:44 10° SE
Abrixas rocket 2.4 02:06:55 10° WSW 02:09:57 62° NW 02:12:20 15° NE
Meteor 2-10 3.9 02:05:33 10° S 02:10:40 74° E 02:15:42 10° NNE
Cosmos 1726 Rocket 4.3 02:06:36 10° SSW 02:10:56 56° W 02:15:14 10° N
USA 238 DEB 4.0 02:07:48 10° S 02:13:56 41° ESE 02:20:13 10° NE
USA 238 4.0 02:07:55 10° S 02:14:03 41° ESE 02:20:19 10° NE
Meteosat 1 Rocket2 4.3 02:13:12 10° SW 02:15:59 21° SSE 02:17:39 16° SE
FengYun 1-2 T 4.2 02:10:39 10° SSE 02:16:18 84° ENE 02:21:57 10° NNW
Cosmos 1328 3.9 02:13:28 10° N 02:17:21 51° E 02:21:10 10° SSE
Cosmos 2228 4.5 02:14:55 10° SSW 02:19:03 41° W 02:23:11 10° N
CZ-4 R/B 1.4 02:15:51 10° SSE 02:19:58 89° W 02:24:10 10° NNW
Cosmos 1356 3.6 02:16:34 10° SSW 02:19:58 71° W 02:23:24 10° N
IUS-18 SRM-1 3.8 02:15:16 10° WSW 02:22:43 30° S 02:24:34 19° SE
Meteor 1-11 4.4 02:18:31 10° N 02:24:07 51° ENE 02:29:45 10° SSE
BREEZE-M DEB (TANK) 4.1 02:06:57 10° SW 02:24:08 71° NW 02:27:52 14° NE
Cosmos 2058 Rocket 3.6 02:20:09 10° SSW 02:24:27 62° W 02:28:47 10° N
USA 234 4.1 02:27:04 22° E 02:29:34 28° SE 02:34:59 10° S
EO 1 Delta rocket 3.7 02:27:57 10° SSE 02:32:40 75° E 02:37:19 10° N
NOSS 3-2 (A) 3.4 02:34:54 10° S 02:40:15 50° ESE 02:43:54 22° NE
Cosmos 2278 Rocket 2.2 02:35:00 10° SSW 02:40:39 87° WNW 02:46:22 10° NNE
OAO 3 Rocket 3.2 02:36:38 10° W 02:41:35 79° N 02:43:26 39° E
CZ-2D R/B 3.1 02:39:01 14° SSE 02:42:12 67° ENE 02:46:02 10° N
Envisat 4.5 02:37:35 10° SSW 02:42:17 38° W 02:47:01 10° NNW
Cosmos 1726 3.9 02:39:01 10° SW 02:42:20 33° W 02:45:41 10° NNW
SL-4 R/B 1.7 02:50:39 10° NW 02:54:21 72° SW 02:54:33 69° SSW
Cosmos 1242 Rocket 4.1 02:52:58 10° NNW 02:56:23 36° W 02:59:45 10° SSW
NOSS 3-2 (C) 3.5 02:57:33 10° S 03:02:28 46° SE 03:02:28 46° SE
OAO 2 Rocket 3.3 02:57:31 10° W 03:02:50 89° S 03:03:47 62° ESE
NOAA 11 4.4 03:05:12 10° S 03:10:38 70° WSW 03:16:04 10° NNW
Cosmos 1727 Rocket 4.4 03:15:51 10° SSW 03:21:55 60° W 03:28:01 10° N
OAO 3 Copernicus 4.4 03:17:07 10° WSW 03:21:37 67° SW 03:21:37 67° SW
Ariane Rocket 3.5 03:20:57 17° S 03:24:47 58° WSW 03:29:49 10° NNW
Cosmos 1833 Rocket 3.0 03:24:08 10° NNW 03:28:35 56° N 03:28:35 56° N
ADEOS Rocket 3.3 03:29:47 10° NNE 03:37:28 79° ESE 03:44:30 10° S
ATLAS 3B R/B 3.6 03:35:33 10° SSW 03:39:18 35° S 03:39:18 35° S
Lacrosse 5 4.1 03:38:42 10° NNW 03:39:57 16° N 03:39:57 16° N
Lacrosse 5 rocket 3.7 03:40:20 10° WNW 03:42:49 19° WSW 03:42:49 19° WSW
Cosmos 2082 Rocket 3.5 03:44:46 10° NNW 03:47:41 31° NNW 03:47:41 31° NNW
CENTAUR R/B 4.2 03:49:15 10° SSW 03:50:35 18° SSW 03:50:35 18° SSW
H-2A R/B 4.3 04:01:11 16° N 04:01:11 16° N 04:02:16 10° NNW
BREEZE M DEB (TANK) 4.4 03:55:25 10° NW 03:57:06 33° NW 03:57:06 33° NW
USA 234 3.9 04:14:29 49° WSW 04:14:29 49° WSW 04:19:15 10° SW
Milstar 3 Cent rocket 4.4 11:13:30 16° SSE 11:13:30 16° SSE 11:16:03 10° ESE
Cosmos 1844 Rocket 4.4 11:21:46 22° SSE 11:21:46 22° SSE 11:23:42 10° SSE
ATLAS 2AS CENTAUR R/B 3.0 11:29:20 57° SSW 11:31:15 80° ESE 11:39:21 10° NNE
Aureole 1 Rocket 4.1 11:33:44 63° N 11:33:44 63° N 11:38:19 10° NNE
Cosmos 2333 Rocket 3.0 11:36:48 40° N 11:36:48 40° N 11:40:25 10° NNE
ADEOS 4.4 11:29:42 10° NNE 11:33:13 44° NNE 11:33:13 44° NNE
Cosmos 2278 Rocket 4.4 11:33:58 10° N 11:38:26 23° ENE 11:42:52 10° ESE
Meteor 1-22 Rocket 4.2 11:35:20 10° N 11:40:39 70° E 11:45:53 10° SSE
USA 238 DEB 4.5 11:34:54 12° NNW 11:41:36 54° NE 11:48:50 10° SE
USA 238 4.5 11:34:58 12° NNW 11:41:42 53° NE 11:48:55 10° SE
Cosmos 1844 3.6 11:43:49 82° SSE 11:43:49 82° SSE 11:49:16 10° SSE
CZ-2C R/B 3.6 11:44:58 10° NNE 11:49:56 44° E 11:54:48 10° S
